DIRECTV 10

Last updated on March 5, 2021, 6:34 a.m. UTC

1 31862U 07032A   21063.62814641 -.00000113  00000-0  00000-0 0  9992
2 31862   0.0247 263.9956 0000143  68.3090 313.6212  1.00269222 26256
UTC
Height (km)
Latitude
Longitude
Inclination
Orbital Period
UTC large
Height (km)
Speed (km/s)
/
Latitude / Longitude
Inclination (degrees)
Orbital Period (minutes)
Azimuth
Elevation
Range (km)
Doppler Factor
iOS Compass Heading
iOS Angle

Next 30 passes for location: Hong Kong

Rise time Rise Azimuth (degrees) Set time Set Azimuth (degrees) Duration Max altitude (degrees)

No matching passes for this satellites